This demonstration page uses our WeatherBlox Daily Observations layout. Learn more.

39.29038, -76.61219

Hourly Observations for September 25, 2016

Temp ( °F °C ) Dew Point ( °F °C ) Humidity (%) Winds ( mph kmh ) Pressure ( in mb ) Visibility ( mi km ) Precip ( " mm )
12:54 am 00:54 undefined 65 18.3 52 11.1 63 63 undefined N/A 30.16 1021 N/A 0 0
1:54 am 01:54 undefined 64 17.8 49 9.4 58 58 undefined N/A 30.17 1022 N/A 0 0
2:54 am 02:54 undefined 62 16.7 50 10 65 65 undefined N/A 30.18 1022 N/A 0 0
3:54 am 03:54 undefined 61 16.1 48 8.9 63 63 undefined N/A 30.17 1022 N/A 0 0
4:54 am 04:54 undefined 60 15.6 45 7.2 58 58 undefined N/A 30.18 1022 N/A 0 0
5:54 am 05:54 undefined 59 15 46 7.8 62 62 undefined N/A 30.2 1023 N/A 0 0
6:54 am 06:54 undefined 58 14.4 45 7.2 62 62 undefined N/A 30.22 1023 N/A 0 0
7:54 am 07:54 undefined 59 15 43 6.1 56 56 undefined N/A 30.23 1024 N/A 0 0
8:54 am 08:54 undefined 61 16.1 42 5.6 50 50 undefined N/A 30.22 1024 N/A 0 0
9:54 am 09:54 undefined 63 17.2 41 5 45 45 undefined N/A 30.23 1024 N/A 0 0
10:54 am 10:54 undefined 64 17.8 41 5 43 43 undefined N/A 30.23 1024 N/A 0 0
11:54 am 11:54 undefined 67 19.4 41 5 39 39 undefined N/A 30.23 1024 N/A 0 0
12:54 pm 12:54 undefined 68 20 40 4.4 36 36 undefined N/A 30.21 1023 N/A 0 0
1:54 pm 13:54 undefined 71 21.7 42 5.6 35 35 undefined N/A 30.19 1022 N/A 0 0
2:54 pm 14:54 undefined 71 21.7 44 6.7 38 38 undefined N/A 30.16 1022 N/A 0 0
3:54 pm 15:54 undefined 70 21.1 43 6.1 38 38 undefined N/A 30.14 1021 N/A 0 0
4:54 pm 16:54 undefined 70 21.1 43 6.1 38 38 undefined N/A 30.14 1021 N/A 0 0
5:54 pm 17:54 undefined 69 20.6 43 6.1 39 39 undefined N/A 30.14 1021 N/A 0 0
6:54 pm 18:54 undefined 68 20 45 7.2 44 44 undefined N/A 30.15 1021 N/A 0 0
7:54 pm 19:54 undefined 68 20 45 7.2 44 44 undefined N/A 30.16 1021 N/A 0 0
8:54 pm 20:54 undefined 67 19.4 46 7.8 47 47 undefined N/A 30.17 1022 N/A 0 0
9:54 pm 21:54 undefined 65 18.3 45 7.2 49 49 undefined N/A 30.18 1022 N/A 0 0
10:54 pm 22:54 undefined 65 18.3 46 7.8 51 51 undefined N/A 30.19 1022 N/A 0 0
11:54 pm 23:54 undefined 64 17.8 46 7.8 52 52 undefined N/A 30.17 1022 N/A 0 0

Powered by AerisWeather